Home > Weather > Bodrum > Past weeks

Flag for Turkey Past Weather in Bodrum, Turkey — Yesterday and Last 2 Weeks

Now
80 °F

Clear.


Feels Like: 81 °F
Forecast: 74 / 88 °F
Wind: 1 mph from Southeast

Location: Bodrum

Current Time: Jul 27, 2016 at 12:49:32 AM

Latest Report: Jul 27, 2016 at 12:00 AM


Visibility: 13 mi

Pressure: 29.73 "Hg

Humidity: 56%

Dew Point: 63 °F

Location of BodrumLocation

Past Weather in Bodrum — Graph

°F

Bodrum Temperature Yesterday

Maximum temperature yesterday: 94 °F (at 4:00 PM)
Minimum temperature yesterday: 77 °F (at 6:00 AM)
Average temperature yesterday: 87 °F

High & Low Weather Summary for the Past Weeks

 TemperatureHumidityPressure
High105 °F (Jul 24, 5:00 PM)76% (Jul 16, 9:00 PM)29.87 "Hg (Jul 16, 9:00 PM)
Low75 °F (Jul 22, 6:00 AM)10% (Jul 24, 6:00 PM)29.57 "Hg (Jul 19, 6:00 PM)
Average90 °F40%29.72 "Hg
* Reported Jul 11 9:00 PM — Jul 26 9:00 PM, Bodrum, Weather by CustomWeather, © 2016

Note: Actual official high and low records may vary slightly from our data, if they occured in-between our weather recording intervals... More about our weather records

Advertising

Bodrum Weather History for the Previous 24 Hours

Scroll right to see more
 ConditionsComfort  
Time TempWeatherWind HumidityBarometerVisibility
9:00 PM
Tue, Jul 26
83 °FClear.3 mph47%29.71 "Hg12 mi
8:00 PM87 °FSunny.3 mph41%29.70 "Hg12 mi
7:00 PM90 °FSunny.5 mph37%29.70 "Hg12 mi
6:00 PM91 °FSunny.6 mph38%29.70 "Hg12 mi
5:00 PM92 °FSunny.7 mph34%29.71 "Hg12 mi
4:00 PM94 °FSunny.6 mph30%29.70 "Hg12 mi
3:00 PM93 °FSunny.8 mph35%29.71 "Hg12 mi
2:00 PM91 °FSunny.7 mph36%29.71 "Hg12 mi
1:00 PM90 °FSunny.7 mph42%29.71 "Hg12 mi
12:00 PM88 °FSunny.7 mph52%29.71 "Hg12 mi
11:00 AM88 °FSunny.5 mph48%29.71 "Hg12 mi
10:00 AM87 °FSunny.2 mph52%29.70 "Hg12 mi
9:00 AM83 °FSunny.2 mph59%29.70 "Hg12 mi
6:00 AM77 °FClear.1 mph71%29.69 "Hg12 mi
3:00 AM79 °FClear.3 mph63%29.68 "Hg12 mi
12:00 AM82 °FClear.1 mph48%29.69 "Hg12 mi
Weather by CustomWeather, © 2016

See weather overviewHow to use our weather pages